Regional Weather Roundup
Issued by NWS

Home | Current Version | Previous Version | Text Only | Print | Product List | Glossary On
Versions: 1 2 3 4 5 6 7 8 9 10 11 12 13 14 15 16 17 18 19 20 21 22 23 24 25 26 27 28 29 30 31 32 33 34 35 36 37 38 39 40 41 42 43 44 45 46 47 48 49 50
000
ASHW40 PHFO 230043
RWRHI

WEATHER ROUNDUP FOR HAWAII
NATIONAL WEATHER SERVICE HONOLULU HI
200 PM HST WED FEB 22 2017

THIS IS AN AUTOMATED REPORT THAT HAS NOT BEEN QUALITY CONTROLLED.

NOTE..."FAIR" INDICATES FEW OR NO CLOUDS BELOW 12,000 FEET WITH NO
SIGNIFICANT WEATHER AND/OR OBSTRUCTIONS TO VISIBILITY.

* - THESE SITES REPORT LIMITED FIELDS

HIZ001>004-230100-
KAUAI-NIIHAU-

CITY           SKY/WX    TMP DP  RH WIND       PRES   REMARKS
LIHUE APT      MOSUNNY   76  61  59 NE16      30.21F
PORT ALLEN*      N/A     79 N/A N/A E24G36      N/A
POIPU*           N/A     77 N/A N/A E10G21      N/A
PRINCEVILLE*     N/A     75 N/A N/A E12G21      N/A
KOKOLE POINT*  NOT AVBL
MOLOAA DAIRY*    N/A     75  61  60 E7G15       N/A
WAIMEA HTS*      N/A     82  57  42 W7G14       N/A
PUU OPAE*      NOT AVBL
PUU LUA*       NOT AVBL
MAKAHA RIDGE*    N/A     73  55  53 W3          N/A
$$

HIZ005>011-230100-
OAHU-

CITY           SKY/WX    TMP DP  RH WIND       PRES   REMARKS
HONOLULU       MOSUNNY   80  59  48 E23G35    30.17F
KALAELOA       SUNNY     81  59  47 NE8G21    30.18F
KANEOHE MCB    NOT AVBL
WHEELER FIELD  MOSUNNY   74  60  61 E8        30.18F
BELLOWS*         N/A    N/A N/A N/A NE20        N/A
KAHUKU*          N/A    N/A N/A N/A NE14G25     N/A
WHEELER*         N/A    N/A N/A N/A NE10G17     N/A
WAIANAE HARBOR   N/A    N/A N/A N/A NE8G21      N/A
DILLINGHAM*    NOT AVBL
KAHUKU TRN*      N/A     77  59  53 W13G24      N/A
KAWAILOA*        N/A     72  59  64 E16G30      N/A
KII*             N/A     75  61  60 E21G26      N/A
MAKUA RANGE*     N/A     81  59  47 W12G18      N/A
OAHU FOREST NW NOT AVBL
SCHOFIELD BRK*   N/A     75  59  57 MISG        N/A
SCHOFIELD S*   NOT AVBL
WAIANAE VLY*   NOT AVBL
KUAOKALA*      NOT AVBL
HONOULIUULI*   NOT AVBL
MOKUOLOE IS*   NOT AVBL
PALEHUA*         N/A     68  57  68 E10G22      N/A
WAIAWA PHB*    NOT AVBL
$$

HIZ012>013-230100-
MOLOKAI-

CITY           SKY/WX    TMP DP  RH WIND       PRES   REMARKS
MOLOKAI AIRPT  SUNNY     78  61  55 NE28G38   30.16F
KALAUPAPA      NOT AVBL
MAKAPULAPAI*     N/A     79  61  53 E21G30      N/A
MOLOKAI 1*     NOT AVBL
PUU ALII*        N/A     59  56  89 N3G9        N/A
$$

HIZ016-230100-
KAHOOLAWE-

CITY           SKY/WX    TMP DP  RH WIND       PRES   REMARKS
KAHOOLAWE*     NOT AVBL
HAKIOAWA*        N/A     71  60  67 MISG      30.56F
HONOKANAIA*      N/A     81  57  43 NE20G37   30.12F
KANELOA*         N/A     75  59  57 E22G41    30.24F
KEALIALALO*    NOT AVBL
LUA MAKIKA*    NOT AVBL
$$

HIZ014>015-230100-
LANAI-

CITY           SKY/WX    TMP DP  RH WIND       PRES   REMARKS
LANAI CITY       N/A     71  58  63 CALM      30.20F
LANAI 1*       NOT AVBL
$$

HIZ017>028-230100-
MAUI-

CITY           SKY/WX    TMP DP  RH WIND       PRES   REMARKS
KAHULUI        MOSUNNY   79  60  52 NE25G33   30.16F
KAPALUA-W MAUI MOSUNNY   77  59  53 NE21G35   30.17F
HANA AIRPORT   SUNNY     77  63  61 NE12      30.21F
HANA*            N/A     75 N/A N/A E12G18      N/A
HALEAKALA SUMM   N/A     50  23  34 NE7         N/A
MAALAEA BAY*     N/A     79 N/A N/A N22G33      N/A
HALEAKALA*     NOT AVBL
KAUPO GAP*       N/A     82  70  65 S7G16       N/A
KULA 1*          N/A     60  51  72 W5G12       N/A
$$

HIZ023>026-230100-
BIG ISLAND OF HAWAII COAST AND LOWER SLOPES-

CITY           SKY/WX    TMP DP  RH WIND       PRES   REMARKS
KAILUA KONA    MOSUNNY   80  63  55 W10       30.10F
HILO           PTSUNNY   77  54  44 NE8       30.18F
HONOKAA*         N/A     70 N/A N/A VRB1        N/A
KAWAIHAE MWT*    N/A     82 N/A N/A W9          N/A
KAWAIHAE*        N/A     79 N/A N/A W12       30.09F
SOUTH POINT*     N/A     75 N/A N/A N22G32      N/A
UPOLU AIRPORT* NOT AVBL
KAMUELA*       PTCLDY    70  54  56 NE18      30.21R
HAKALAU*         N/A     51  49  94 NE6         N/A
KALOKO-HONOKO*   N/A     82  64  54 SW8         N/A
PALI 2*          N/A     70  52  52 S23G35      N/A
KEALAKOMO*       N/A     82  54  36 NE24G37     N/A
KAUPULEHU*       N/A     79  52  38 VRB17G29    N/A
KAPAPALA*        N/A     82  54  37 E9G23       N/A
LOWER KAHUKU*    N/A     68  57  68 NE3G17      N/A
PUHE CS*         N/A     82  57  42 W5G10       N/A
PUHO CS*         N/A     82  62  49 W3G9        N/A
PTA KEAMUKU*     N/A     64  52  63 CALM        N/A
WAIKOLOA*        N/A     77  52  41 NE22G35     N/A
$$

HIZ027>028-230100-
BIG ISLAND OF HAWAII INTERIOR AND SUMMMITS-

CITY           SKY/WX    TMP DP  RH WIND       PRES   REMARKS
BRADSHAW FIELD MOSUNNY   68  18  14 S8        30.37F
MK VISITOR CEN   N/A     48  12  23 S5          N/A
MAUNA KEA*       N/A     28  12  50 SW10G22     N/A  WCI  19
MAUNA LOA*       N/A    N/A N/A N/A MISG        N/A
MAUNA LOA 1*   NOT AVBL
PTA KIPUKA*      N/A    N/A N/A N/A W8G18       N/A
PTA RANGE 17*    N/A     63  45  51 W9G17       N/A
PTA WEST*        N/A     72  52  49 NW12G21     N/A
NENE CABIN*      N/A     55  41  58 E8G15       N/A
AHUMOA*          N/A     59  39  47 N3G12       N/A
PTA PORTABLE*  NOT AVBL
PUU MALI*        N/A     54  48  82 N12G18      N/A
$$

HIC003-230100-
NORTHWEST ISLANDS-

CITY           SKY/WX    TMP DP  RH WIND       PRES   REMARKS
MIDWAY ISLAND  MOSUNNY   72  70  94 S18       30.13S FOG
MIDWAY NOS*      N/A     72 N/A N/A MISG      30.09F
FRENCH FRIGATE NOT AVBL
$$

PHZ110>124-180-230100-
BUOY REPORTS

STATION/POSITION TIME  TEMP    WIND        PRES    WAVE   SWELL
                       AIR SEA DIR/SP/G            HT/PER HT/DIR
                 (UTC) (F)     (DEG/KT/KT) (MB)    (FT/S) (FT/D)
BUOY 51001       0020   71 72   90/ 14/ 19 1024.0
BUOY 51101       2350   71 72   70/ 16/ 19 1025.0F   8/15   7/310
BUOY 51100       NOT AVBL
BUOY 51002       0020   76 77   50/ 21/ 27 1017.8
BUOY 51003       2350   75 77   60/ 17/ 19 1020.2    9/ 9   7/ 90
BUOY 51004       2350      77   50/ 21/ 27 1017.9F  11/ 9   8/ 60
BARBERS PT BUOY  NOT AVBL
WAIMEA BAY BUOY  0002      74                N/A     6/10   2/ 10
KAILUA BAY BUOY  0004      75                N/A     8/ 8   2/ 20
LANAI BUOY       0015      77                N/A     2/ 9
BARBERS PT 2     NOT AVBL
PAUWELA MAUI     0009      75                N/A     8/ 8   2/360
HILO             0012      76                N/A     8/ 8   2/ 20
KANEOHE BAY BUOY 0006      75                N/A     7/ 8   2/ 30
HANALEI KAUAI    0022      76                N/A     8/ 7   3/310
KAHULUI HARBOR   0006   74 74   50/ 18/ 25 1021.3
HONOLULU HARBOR  0006   76 75   90/  7/ 17 1022.0
KILO NALU        NOT AVBL
HILO HARBOR      0006   77 76   40/  9/ 12 1021.5
MOKUOLOE         2336   74 74   70/ 12/ 15 1022.7F
NAWILIWILI       0006   74 77   60/ 14/ 18 1022.5
WHOTS BUOY       NOT AVBL
BUOY 51028       NOT AVBL
$$

......................KEY........................................
  SKY/WX - SKY CONDITIONS/PRESENT WEATHER
  TMP    - TEMPERATURE IN FAHRENHEIT
  DWPT   - DEWPOINT IN FAHRENHEIT
  RH     - RELATIVE HUMIDITY IN PERCENT
  WIND   - DIRECTION AND SPEED /MPH FOR ISLANDS...KTS FOR BUOYS/
  PRES   - MEAN SEA LEVEL PRESSURE IN INCHES OF HG
  VSB    - VISIBILITY IN MILES
  HX     - HEAT INDEX
  WCI    - WIND CHILL INDEX
  VRB    - VARIABLE WIND DIRECTION
  N/A    - NOT AVAILABLE




USA.gov is the U.S. government's official web portal to all federal, state and local government web resources and services.